, MS

(GMT )
Nakika

Weather History for KIKT - December, 2013

Change the Weather History Date:

Monday, December 16, 2013

  Actual Average Record
Temperature  
Mean Temperature 58 °F -  
Max Temperature 62 °F - - ()
Min Temperature 55 °F - - ()
Degree Days  
Heating Degree Days 8    
Growing Degree Days 8 (Base 50)    
Moisture  
Dew Point 46 °F    
Average Humidity 63    
Maximum Humidity 68    
Minimum Humidity 55    
Precipitation  
Precipitation 0.00 in - - ()
Sea Level Pressure  
Sea Level Pressure 30.26 in    
Wind  
Wind Speed 11 mph (NE)    
Max Wind Speed 16 mph    
Max Gust Speed 21 mph    
Visibility 10 miles    
Events      
Averages and records for this station are not official NWS values.
T = Trace of Precipitation, MM = Missing Value Source: NWS Daily Summary

Daily Weather History Graph

Daily Weather History Graph

Search for Another Location

Airport or City:

Trip Planner

Search our weather history database for the weather conditions in past years. The results will help you decide how hot, cold, wet, or windy it might be!

Date:

Astronomy

Dec. 16, 2013 Rise Set
Actual Time 6:38 AM CST 4:59 PM CST
Civil Twilight 6:12 AM CST 5:25 PM CST
Nautical Twilight 5:43 AM CST 5:54 PM CST
Astronomical Twilight 5:14 AM CST 6:23 PM CST
Moon 4:45 PM CST (12/16) 5:51 AM CST (12/16)
Length of Visible Light 11h 12m
Length of Day
10h 20m
Full, 100% of the Moon is Illuminated
Dec 16
Full
Dec 17
Full
Dec 25
Last Quarter
Jan 1
New
Jan 7
First Quarter

Hourly Weather History & Observations

Time (CST) Temp. Dew Point Humidity Pressure Visibility Wind Dir Wind Speed Gust Speed Precip Events Conditions
12:15 AM 57.2 °F 46.4 °F 67% 30.24 in 10.0 mi NNE 13.8 mph - N/A   Mostly Cloudy
12:35 AM 57.2 °F 44.6 °F 63% 30.24 in 10.0 mi NNE 15.0 mph 20.7 mph N/A   Overcast
12:55 AM 57.2 °F 44.6 °F 63% 30.24 in 10.0 mi NNE 12.7 mph 19.6 mph N/A   Overcast
1:15 AM 55.4 °F 42.8 °F 63% 30.24 in 10.0 mi NNE 10.4 mph 17.3 mph N/A   Mostly Cloudy
1:35 AM 57.2 °F 44.6 °F 63% 30.24 in 10.0 mi NNE 13.8 mph - N/A   Overcast
1:55 AM 55.4 °F 44.6 °F 67% 30.24 in 10.0 mi NNE 10.4 mph - N/A   Overcast
2:15 AM 55.4 °F 44.6 °F 67% 30.23 in 10.0 mi NNE 11.5 mph 18.4 mph N/A   Overcast
2:35 AM 55.4 °F 44.6 °F 67% 30.23 in 10.0 mi NNE 11.5 mph 17.3 mph N/A   Overcast
2:55 AM 55.4 °F 42.8 °F 63% 30.24 in 10.0 mi NNE 10.4 mph 16.1 mph N/A   Overcast
3:15 AM 55.4 °F 42.8 °F 63% 30.24 in 10.0 mi NNE 9.2 mph 19.6 mph N/A   Overcast
3:35 AM 55.4 °F 44.6 °F 67% 30.24 in 10.0 mi NNE 9.2 mph - N/A   Overcast
3:55 AM 55.4 °F 44.6 °F 67% 30.24 in 10.0 mi North 12.7 mph - N/A   Overcast
4:15 AM 55.4 °F 44.6 °F 67% 30.24 in 10.0 mi NNE 12.7 mph - N/A   Overcast
4:35 AM 55.4 °F 44.6 °F 67% 30.24 in 10.0 mi Variable 5.8 mph 15.0 mph N/A   Overcast
4:55 AM 55.4 °F 44.6 °F 67% 30.24 in 10.0 mi NNE 10.4 mph 16.1 mph N/A   Overcast
5:15 AM 57.2 °F 46.4 °F 67% 30.24 in 10.0 mi Variable 5.8 mph 13.8 mph N/A   Overcast
5:35 AM 57.2 °F 44.6 °F 63% 30.25 in 10.0 mi NNE 10.4 mph 16.1 mph N/A   Overcast
5:55 AM 57.2 °F 46.4 °F 67% 30.25 in 10.0 mi NNE 11.5 mph 17.3 mph N/A   Overcast
6:15 AM 55.4 °F 42.8 °F 63% 30.26 in 10.0 mi NNE 12.7 mph - N/A   Mostly Cloudy
6:35 AM 57.2 °F 44.6 °F 63% 30.26 in 10.0 mi NNE 12.7 mph - N/A   Mostly Cloudy
6:55 AM 57.2 °F 44.6 °F 63% 30.27 in 10.0 mi NE 8.1 mph 17.3 mph N/A   Mostly Cloudy
7:15 AM 57.2 °F 44.6 °F 63% 30.27 in 10.0 mi NNE 8.1 mph 15.0 mph N/A   Mostly Cloudy
7:35 AM 59.0 °F 46.4 °F 63% 30.27 in 10.0 mi North 9.2 mph 16.1 mph N/A   Overcast
7:55 AM 57.2 °F 44.6 °F 63% 30.28 in 10.0 mi NNE 10.4 mph 16.1 mph N/A   Mostly Cloudy
8:15 AM 59.0 °F 46.4 °F 63% 30.28 in 10.0 mi NNE 9.2 mph - N/A   Mostly Cloudy
8:35 AM 59.0 °F 44.6 °F 59% 30.29 in 10.0 mi NE 6.9 mph 17.3 mph N/A   Mostly Cloudy
8:55 AM 59.0 °F 46.4 °F 63% 30.29 in 10.0 mi NNE 16.1 mph - N/A   Mostly Cloudy
9:15 AM 59.0 °F 48.2 °F 67% 30.30 in 10.0 mi NNE 12.7 mph - N/A   Overcast
9:35 AM 59.0 °F 44.6 °F 59% 30.30 in 10.0 mi ENE 9.2 mph - N/A   Overcast
9:55 AM 59.0 °F 44.6 °F 59% 30.30 in 10.0 mi NE 9.2 mph - N/A   Scattered Clouds
10:15 AM 59.0 °F 44.6 °F 59% 30.30 in 10.0 mi NE 8.1 mph 16.1 mph N/A   Mostly Cloudy
10:35 AM 60.8 °F 46.4 °F 59% 30.30 in 10.0 mi NNE 10.4 mph - N/A   Mostly Cloudy
10:55 AM 60.8 °F 48.2 °F 63% 30.29 in 10.0 mi NE 10.4 mph - N/A   Mostly Cloudy
11:15 AM 60.8 °F 46.4 °F 59% 30.29 in 10.0 mi ENE 10.4 mph - N/A   Mostly Cloudy
11:35 AM 60.8 °F 46.4 °F 59% 30.28 in 10.0 mi NE 6.9 mph 12.7 mph N/A   Mostly Cloudy
11:55 AM 59.0 °F 48.2 °F 67% 30.27 in 10.0 mi NNE 9.2 mph - N/A   Mostly Cloudy
12:15 PM 59.0 °F 46.4 °F 63% 30.27 in 10.0 mi ENE 10.4 mph - N/A   Mostly Cloudy
12:35 PM 60.8 °F 46.4 °F 59% 30.26 in 10.0 mi NE 11.5 mph - N/A   Mostly Cloudy
12:55 PM 60.8 °F 46.4 °F 59% 30.25 in 10.0 mi NNE 13.8 mph - N/A   Scattered Clouds
1:15 PM 59.0 °F 46.4 °F 63% 30.24 in 10.0 mi North 10.4 mph 16.1 mph N/A   Partly Cloudy
1:35 PM 59.0 °F 44.6 °F 59% 30.24 in 10.0 mi NE 6.9 mph 16.1 mph N/A   Clear
1:55 PM 59.0 °F 46.4 °F 63% 30.24 in 10.0 mi NNE 9.2 mph 15.0 mph N/A   Clear
2:15 PM 59.0 °F 48.2 °F 67% 30.24 in 10.0 mi NNE 12.7 mph 18.4 mph N/A   Clear
2:35 PM 59.0 °F 46.4 °F 63% 30.24 in 10.0 mi NNE 12.7 mph - N/A   Clear
2:55 PM 59.0 °F 46.4 °F 63% 30.24 in 10.0 mi NNE 10.4 mph - N/A   Clear
3:15 PM 60.8 °F 48.2 °F 63% 30.24 in 10.0 mi NNE 10.4 mph - N/A   Partly Cloudy
3:35 PM 60.8 °F 48.2 °F 63% 30.24 in 10.0 mi NNE 11.5 mph - N/A   Mostly Cloudy
3:55 PM 60.8 °F 48.2 °F 63% 30.23 in 10.0 mi NNE 10.4 mph - N/A   Scattered Clouds
4:15 PM 60.8 °F 50.0 °F 68% 30.24 in 10.0 mi NNE 12.7 mph 18.4 mph N/A   Scattered Clouds
4:35 PM 59.0 °F 48.2 °F 67% 30.24 in 10.0 mi NNE 11.5 mph - N/A   Partly Cloudy
4:55 PM 59.0 °F 48.2 °F 67% 30.24 in 10.0 mi NE 9.2 mph 17.3 mph N/A   Scattered Clouds
5:15 PM 59.0 °F 48.2 °F 67% 30.25 in 10.0 mi NNE 9.2 mph - N/A   Mostly Cloudy
5:35 PM 60.8 °F 48.2 °F 63% 30.25 in 10.0 mi ENE 10.4 mph - N/A   Mostly Cloudy
5:55 PM 60.8 °F 48.2 °F 63% 30.25 in 10.0 mi NE 6.9 mph 13.8 mph N/A   Mostly Cloudy
6:15 PM 60.8 °F 48.2 °F 63% 30.25 in 10.0 mi NE 8.1 mph - N/A   Mostly Cloudy
6:35 PM 60.8 °F 48.2 °F 63% 30.26 in 10.0 mi NNE 9.2 mph - N/A   Mostly Cloudy
6:55 PM 60.8 °F 48.2 °F 63% 30.26 in 10.0 mi East 10.4 mph - N/A   Mostly Cloudy
7:15 PM 60.8 °F 48.2 °F 63% 30.27 in 10.0 mi NE 10.4 mph - N/A   Mostly Cloudy
7:35 PM 60.8 °F 48.2 °F 63% 30.27 in 10.0 mi NE 6.9 mph - N/A   Mostly Cloudy
7:55 PM 60.8 °F 48.2 °F 63% 30.27 in 10.0 mi ENE 9.2 mph - N/A   Mostly Cloudy
8:15 PM 60.8 °F 48.2 °F 63% 30.28 in 10.0 mi ENE 8.1 mph - N/A   Scattered Clouds
8:35 PM 60.8 °F 48.2 °F 63% 30.28 in 10.0 mi NE 5.8 mph 11.5 mph N/A   Mostly Cloudy
8:55 PM 60.8 °F 46.4 °F 59% 30.29 in 10.0 mi East 5.8 mph - N/A   Scattered Clouds
9:15 PM 60.8 °F 48.2 °F 63% 30.29 in 10.0 mi East 8.1 mph - N/A   Scattered Clouds
9:35 PM 60.8 °F 48.2 °F 63% 30.29 in 10.0 mi NE 5.8 mph - N/A   Mostly Cloudy
9:55 PM 60.8 °F 46.4 °F 59% 30.29 in 10.0 mi East 6.9 mph - N/A   Mostly Cloudy
10:15 PM 60.8 °F 46.4 °F 59% 30.29 in 10.0 mi Variable 4.6 mph - N/A   Partly Cloudy
10:35 PM 60.8 °F 46.4 °F 59% 30.29 in 10.0 mi East 4.6 mph - N/A   Clear
10:55 PM 60.8 °F 46.4 °F 59% 30.29 in 10.0 mi NE 4.6 mph - N/A   Partly Cloudy
11:55 PM 62.6 °F 46.4 °F 55% 30.29 in 10.0 mi NE 4.6 mph - N/A   Scattered Clouds